Orbital Elements at Epoch 2459200.5 (2020-Dec-17.0) TDB
Reference: JPL 18 (heliocentric ecliptic J2000)
Element | Value | Uncertainty (1-sigma) | Units |
e | .3102087163310079 | 5.618e-08 | |
a | 2.577760511384734 | 1.4789e-08 | au |
q | 1.778116732139313 | 1.4124e-07 | au |
i | 4.348471386150944 | 4.9138e-06 | deg |
node | 211.1905674740405 | 5.8872e-05 | deg |
peri | 193.7317139467879 | 5.9208e-05 | deg |
M | 193.479528121406 | 8.6288e-06 | deg |
tp | 2459899.741842815444 (2022-Nov-16.24184282) | 3.9536e-05 | TDB |
period | 1511.688386260928 4.14 | 1.3009e-05 3.562e-08 | d yr |
n | .2381443181490855 | 2.0494e-09 | deg/d |
Q | 3.377404290630154 | 1.9376e-08 | au |
|
| | Orbit Determination Parameters
Additional Information
|